cover

 

Get it on iTunes StoreListen on Apple Music

Yan Space

#Trackname / Key / BPM / Publish dateArtists, Remixers / Label
1 126 bpm, 6B / Bb major, 2018-01-26, Trance,  0  40
2 128 bpm, 6B / Bb major, 2017-09-01, Trance,  3  2
3 126 bpm, 6B / Bb major, 2017-09-01, Trance,  1  2
4 132 bpm, 9A / E minor, 2016-07-01, Trance,  0  25
5 135 bpm, 7A / D minor, 2016-06-27, Trance,  0  11
6 128 bpm, 8A / A minor, 2016-06-17, Trance,  0  21
7 132 bpm, 8A / A minor, 2016-06-06, Trance,  0  25
8 132 bpm, 8A / A minor, 2016-05-23, Trance,  0  25
9 132 bpm, 9A / E minor, 2016-05-06, Trance,  0  20
10 132 bpm, 9A / E minor, 2016-04-22, Trance,  0  25
11 132 bpm, 8A / A minor, 2016-04-11, Trance,  0  25
12 132 bpm, 9A / E minor, 2016-03-18, Trance,  1  25
13 132 bpm, 9A / E minor, 2016-02-26, Trance,  3  1
14 130 bpm, 7A / D minor, 2016-02-26, Trance,  0  100
15 130 bpm, 7A / D minor, 2016-01-22, Trance,  0  20
16 132 bpm, 8A / A minor, 2016-01-11, Trance,  0  24
17 130 bpm, 8A / A minor, 2015-11-20, Trance,  4  1
18 132 bpm, 8A / A minor, 2015-11-16, Trance,  0  20
19 132 bpm, 8A / A minor, 2015-11-02, Trance,  0  25
20 132 bpm, 8A / A minor, 2015-10-12, Trance,  0  16
21 132 bpm, 8A / A minor, 2015-09-14, Trance,  0  20
22 132 bpm, 9A / E minor, 2015-08-17, Trance,  1  37
23 132 bpm, 8A / A minor, 2015-06-11, Trance,  0  25
24 128 bpm, 2A / Eb minor, 2015-05-15, Trance,  1  20
25 132 bpm, 9A / E minor, 2015-04-13, Trance,  8  2
26 128 bpm, 7A / D minor, 2015-04-06, Trance,  1  3
27 128 bpm, 7A / D minor, 2015-04-06, Trance,  0  3
28 135 bpm, 7A / D minor, 2015-04-06, Trance,  0  3
29 132 bpm, 9A / E minor, 2015-03-27, Trance,  0  39
30 132 bpm, 8A / A minor, 2015-03-23, Trance,  0  20
31 132 bpm, 8A / A minor, 2015-03-09, Trance,  0  11
32 132 bpm, 8A / A minor, 2015-03-02, Trance,  0  33
33 132 bpm, 8A / A minor, 2015-02-02, Trance,  0  3
34 132 bpm, 8A / A minor, 2015-02-02, Trance,  0  3
35 132 bpm, 8A / A minor, 2015-02-02, Trance,  0  3
36 128 bpm, 9A / E minor, 2014-08-25, Electro House,  3  2
37 128 bpm, 9A / E minor, 2014-08-25, Electro House,  1  2
38 132 bpm, 7A / D minor, 2014-06-16, Trance,  0  32
39 132 bpm, 7A / D minor, 2014-03-24, Trance,  1  30
40 132 bpm, 7A / D minor, 2014-02-10, Trance,  3  2
41 130 bpm, 7A / D minor, 2014-02-10, Trance,  1  2
×

Sign in

Sign in to access your personalized pages, follow artists and labels you love, and create playlists fromyour favorite tracks.

Please wait...